TimeCST,TemperatureF,Dew PointF,Humidity,Sea Level PressureIn,VisibilityMPH,Wind Direction,Wind SpeedMPH,Gust SpeedMPH,PrecipitationIn,Events,Conditions,WindDirDegrees,DateUTC
12:15 AM,35.6,26.6,70,30.11,10.0,West,9.2,-,N/A,,Clear,260,2013-11-10 06:15:00
12:35 AM,35.6,26.6,70,30.11,10.0,West,8.1,-,N/A,,Clear,260,2013-11-10 06:35:00
12:55 AM,35.6,26.6,70,30.12,10.0,West,10.4,-,N/A,,Clear,270,2013-11-10 06:55:00
1:15 AM,35.6,26.6,70,30.13,10.0,West,10.4,-,N/A,,Clear,270,2013-11-10 07:15:00
1:35 AM,35.6,26.6,70,30.13,10.0,West,9.2,-,N/A,,Clear,270,2013-11-10 07:35:00
1:55 AM,33.8,28.4,81,30.14,10.0,West,8.1,-,N/A,,Clear,270,2013-11-10 07:55:00
2:15 AM,33.8,28.4,81,30.15,10.0,WNW,8.1,-,N/A,,Scattered Clouds,290,2013-11-10 08:15:00
2:35 AM,33.8,28.4,81,30.15,10.0,West,6.9,-,N/A,,Scattered Clouds,280,2013-11-10 08:35:00
2:55 AM,33.8,26.6,75,30.16,10.0,West,6.9,-,N/A,,Scattered Clouds,260,2013-11-10 08:55:00
3:15 AM,32.0,26.6,80,30.17,10.0,West,6.9,-,N/A,,Clear,260,2013-11-10 09:15:00
3:35 AM,33.8,26.6,75,30.17,10.0,West,8.1,-,N/A,,Clear,270,2013-11-10 09:35:00
3:55 AM,33.8,26.6,75,30.18,10.0,West,8.1,-,N/A,,Mostly Cloudy,260,2013-11-10 09:55:00
4:15 AM,33.8,28.4,81,30.19,10.0,West,8.1,-,N/A,,Overcast,270,2013-11-10 10:15:00
4:35 AM,33.8,28.4,81,30.19,10.0,West,9.2,-,N/A,,Overcast,280,2013-11-10 10:35:00
5:45 AM,37.4,28.4,70,30.22,10.0,West,9.2,-,N/A,,Overcast,280,2013-11-10 11:45:00
6:45 AM,37.4,28.4,70,30.24,10.0,WNW,11.5,-,N/A,,Overcast,300,2013-11-10 12:45:00
7:45 AM,35.6,28.4,75,30.28,10.0,WSW,5.8,-,N/A,,Mostly Cloudy,250,2013-11-10 13:45:00
8:45 AM,39.2,28.4,65,30.30,10.0,West,8.1,-,N/A,,Clear,280,2013-11-10 14:45:00
9:45 AM,44.6,28.4,53,30.31,10.0,NW,11.5,17.3,N/A,,Scattered Clouds,310,2013-11-10 15:45:00
10:45 AM,46.4,28.4,50,30.32,10.0,NNW,8.1,-,N/A,,Partly Cloudy,330,2013-11-10 16:45:00
11:45 AM,46.4,26.6,46,30.30,10.0,NW,9.2,-,N/A,,Clear,310,2013-11-10 17:45:00
12:45 PM,48.2,26.6,43,30.29,10.0,West,5.8,-,N/A,,Clear,280,2013-11-10 18:45:00
1:45 PM,48.2,26.6,43,30.28,10.0,West,8.1,-,N/A,,Clear,270,2013-11-10 19:45:00
2:45 PM,48.2,26.6,43,30.26,10.0,WSW,6.9,-,N/A,,Clear,250,2013-11-10 20:45:00
3:45 PM,46.4,28.4,50,30.27,10.0,WSW,6.9,-,N/A,,Clear,250,2013-11-10 21:45:00
4:45 PM,42.8,28.4,57,30.26,10.0,WSW,6.9,-,N/A,,Mostly Cloudy,250,2013-11-10 22:45:00
6:45 PM,42.8,30.2,61,30.25,10.0,SW,8.1,-,N/A,,Overcast,220,2013-11-11 00:45:00
7:45 PM,44.6,30.2,57,30.22,10.0,SW,11.5,-,N/A,,Overcast,220,2013-11-11 01:45:00
8:15 PM,42.8,30.2,61,30.21,10.0,SW,9.2,-,N/A,,Overcast,220,2013-11-11 02:15:00
8:35 PM,42.8,32.0,66,30.21,10.0,SW,8.1,-,N/A,,Overcast,220,2013-11-11 02:35:00
8:45 PM,42.8,30.2,61,30.21,10.0,SW,11.5,-,N/A,,Overcast,220,2013-11-11 02:45:00
8:55 PM,42.8,30.2,61,30.21,10.0,SW,8.1,-,N/A,,Overcast,220,2013-11-11 02:55:00
9:15 PM,42.8,30.2,61,30.20,10.0,SW,9.2,-,N/A,,Overcast,220,2013-11-11 03:15:00
9:35 PM,42.8,30.2,61,30.19,10.0,SW,8.1,-,N/A,,Overcast,220,2013-11-11 03:35:00
9:55 PM,42.8,30.2,61,30.19,10.0,SW,10.4,-,N/A,,Overcast,220,2013-11-11 03:55:00
10:15 PM,42.8,30.2,61,30.19,10.0,SW,9.2,-,N/A,,Overcast,230,2013-11-11 04:15:00
10:35 PM,42.8,30.2,61,30.19,10.0,SW,10.4,-,N/A,,Overcast,230,2013-11-11 04:35:00
10:55 PM,42.8,30.2,61,30.18,10.0,SW,9.2,-,N/A,,Overcast,230,2013-11-11 04:55:00
11:15 PM,42.8,30.2,61,30.17,10.0,SW,11.5,-,N/A,,Overcast,220,2013-11-11 05:15:00
11:35 PM,42.8,30.2,61,30.16,10.0,SW,11.5,-,N/A,,Overcast,230,2013-11-11 05:35:00
11:55 PM,42.8,30.2,61,30.15,10.0,SW,9.2,-,N/A,,Overcast,220,2013-11-11 05:55:00